GFSGL_850_spd_336.txt.gz
Wind_Speed
10 10 9 7 7 10 11 9 11 14 13 3 5 4 9 11 13 16 17 16 17 17 16 15 15 17 17 18 19 21 21 21 24 26 23 19 22 22 26 28 35 37 42
6 8 5 3 4 6 5 4 2 2 1 1 2 6 9 13 17 16 11 10 10 11 13 15 16 17 18 20 20 20 21 21 23 24 24 23 22 18 15 20 22 33 38
6 3 2 2 3 3 2 5 3 2 1 4 7 10 15 14 9 7 10 13 14 16 17 17 18 17 18 19 20 20 22 23 23 25 25 24 24 21 21 24 24 23 28
2 3 2 4 5 4 4 3 3 3 2 6 11 13 11 9 9 13 14 16 15 16 20 19 18 18 19 21 23 23 23 22 21 23 25 26 24 22 21 21 22 26 26
2 2 3 3 4 2 2 3 3 2 6 12 8 10 13 14 14 16 18 18 19 18 18 17 18 19 21 23 26 22 23 23 24 24 24 25 25 23 20 20 19 21 23
4 2 3 3 3 2 1 0 2 7 11 10 9 15 16 16 16 19 23 22 24 24 22 23 23 24 28 30 28 25 24 24 24 24 24 24 23 23 21 20 20 21 18
7 9 9 5 3 9 4 7 6 9 11 10 15 18 19 21 19 21 19 23 23 20 24 27 26 26 26 24 24 23 24 26 27 26 25 23 22 20 23 22 19 19 21
4 5 5 6 5 6 7 5 7 11 12 13 16 18 20 21 20 23 26 24 23 25 22 24 26 25 26 31 34 32 30 30 30 28 27 24 23 20 22 21 19 19 21
3 5 5 6 6 8 7 8 9 11 14 16 16 17 18 20 22 26 28 25 21 21 20 18 23 27 32 33 35 36 37 37 33 33 34 32 29 25 23 23 21 22 20
1 3 5 5 6 7 8 11 13 15 16 16 17 16 20 22 24 22 19 18 19 18 19 22 18 17 24 26 27 29 32 29 26 28 29 30 32 33 31 28 22 22 18
4 2 4 5 6 9 13 15 17 16 17 18 17 19 22 20 17 19 16 16 18 21 17 11 17 21 24 33 26 25 25 22 21 20 21 22 22 23 28 33 29 22 23
5 4 6 8 11 14 16 17 15 15 15 18 22 22 17 16 17 17 14 16 18 13 12 13 16 20 22 26 29 23 21 17 18 19 18 17 16 18 21 25 30 27 23
7 8 9 12 13 14 17 17 15 18 21 21 20 18 18 16 17 14 12 16 13 10 15 14 16 19 18 19 24 21 18 16 19 21 20 20 17 16 13 11 18 23 21
8 8 7 9 10 12 15 18 21 20 18 15 16 17 16 13 12 14 15 10 7 11 13 13 17 16 17 19 18 16 16 19 20 21 23 18 17 15 12 10 11 15 18
5 6 8 9 11 14 17 17 16 12 12 14 14 13 13 11 10 10 10 12 13 15 15 15 16 19 21 23 18 16 16 17 21 20 20 25 15 11 12 12 10 11 15
3 7 11 13 15 19 13 12 9 10 12 9 8 9 12 13 12 10 11 13 15 16 17 16 16 17 18 21 19 18 15 16 19 22 18 25 20 10 8 7 13 12 15
7 9 12 11 10 10 10 10 10 10 3 5 8 9 10 9 8 12 14 16 18 20 19 16 15 15 16 16 18 18 17 17 20 22 17 20 23 11 7 8 7 16 15
15 18 10 5 8 11 11 6 3 4 10 9 7 6 6 9 10 12 16 18 21 24 22 19 17 16 16 16 16 18 18 17 17 19 21 18 27 13 8 10 13 12 13
14 9 4 4 8 13 8 4 6 12 8 7 6 5 5 5 9 12 16 20 23 26 24 20 19 18 17 17 18 19 19 19 18 18 18 19 20 13 18 11 11 17 14
9 5 2 0 6 9 9 9 12 6 4 2 2 3 5 7 8 11 15 19 22 25 21 19 19 18 19 19 20 21 22 21 18 17 20 19 13 15 11 13 25 35 32
8 3 2 1 7 7 9 7 4 4 3 2 4 5 8 7 8 9 13 17 21 23 21 17 17 17 20 22 21 20 22 22 23 20 19 21 18 15 12 16 20 25 36
4 3 2 1 4 5 4 2 2 4 7 6 9 12 11 10 6 7 11 15 18 21 22 18 15 15 18 21 23 22 22 23 22 21 19 16 17 16 8 15 21 28 21
3 1 3 7 6 7 8 9 7 12 12 11 9 10 10 5 4 6 9 13 15 17 19 20 16 12 13 16 18 21 23 20 21 21 20 15 12 13 12 13 18 11 21
6 5 7 4 8 8 11 10 10 8 8 7 9 6 5 3 3 8 8 11 13 15 17 18 20 17 9 10 14 17 21 22 19 18 19 17 15 10 9 9 12 17 19
10 7 6 9 9 8 9 9 8 8 6 7 6 5 2 2 5 8 9 12 14 15 16 18 19 19 12 7 8 14 15 18 16 12 13 13 15 13 11 11 11 10 13
10 9 8 9 8 6 2 4 5 5 6 6 6 8 11 10 6 8 11 13 14 15 16 17 17 16 15 9 6 9 13 17 20 15 11 8 9 12 10 11 10 9 9

GFSGL_850_spd_342.txt.gz
Wind_Speed
14 11 22 17 22 18 17 15 12 11 9 8 7 6 5 3 4 8 8 5 4 5 5 6 8 9 9 12 14 16 16 17 20 20 20 20 20 21 22 21 21 24 23
19 16 25 25 21 16 13 11 11 8 9 11 10 7 3 2 7 5 3 2 4 4 5 8 9 11 12 13 14 14 16 17 19 23 23 23 22 20 22 21 21 20 23
24 25 25 21 17 13 11 11 12 12 13 11 8 4 2 2 1 1 1 4 6 7 8 11 12 12 14 16 15 16 18 20 22 25 28 26 23 22 22 22 21 20 20
20 17 16 15 15 15 15 15 14 13 10 6 3 1 1 1 2 3 5 7 9 11 11 13 14 14 14 14 16 18 21 21 23 27 29 27 24 22 22 23 22 20 21
16 15 17 16 16 15 16 14 13 10 7 5 4 2 1 2 4 5 8 10 13 13 14 15 16 15 20 21 20 18 20 22 24 27 27 27 25 25 19 21 23 22 20
15 16 13 13 12 14 14 13 12 10 7 6 4 3 4 4 10 11 12 13 13 15 17 18 16 17 12 20 21 22 23 27 26 26 27 29 27 26 23 22 20 17 21
11 11 11 10 6 5 7 9 9 7 4 4 4 5 7 8 12 12 13 16 14 17 15 13 11 11 14 12 18 20 18 20 20 22 26 29 31 29 26 22 19 18 17
13 12 8 5 4 2 2 6 6 5 4 5 5 8 10 12 14 13 16 16 14 13 12 12 11 11 13 15 18 16 18 16 15 18 21 28 31 29 25 22 21 20 21
12 5 7 4 6 1 3 5 4 5 9 10 9 7 8 11 13 17 21 17 15 14 11 13 11 9 11 15 17 16 18 17 16 23 17 17 17 23 30 29 27 27 26
6 7 4 3 2 4 4 5 7 10 9 10 9 11 10 11 16 18 17 14 15 14 14 11 16 11 15 16 18 17 17 18 17 17 16 14 12 12 13 18 19 23 26
6 5 4 2 1 3 6 9 7 8 12 13 13 13 12 13 12 13 14 12 12 14 13 12 11 15 16 18 17 18 17 23 20 16 16 14 13 15 14 15 19 20 21
6 3 1 3 3 4 4 4 7 10 13 14 15 12 11 13 14 13 13 12 11 11 11 12 14 18 19 17 18 19 24 22 19 18 16 17 15 17 19 19 19 19 18
3 4 5 6 6 5 6 8 12 13 15 14 9 10 10 7 7 11 12 11 12 14 13 17 18 19 18 16 18 17 15 14 15 15 16 19 17 18 21 19 17 17 19
10 11 10 10 9 11 11 11 13 11 10 7 7 7 5 8 9 11 13 14 16 16 18 14 15 15 14 14 15 14 14 14 16 17 18 18 18 22 20 18 15 13 13
12 10 10 10 14 15 11 11 7 7 5 3 3 5 6 8 10 15 18 19 23 19 15 13 12 12 13 13 14 15 15 16 17 17 18 19 21 21 24 19 11 11 12
5 9 12 15 10 8 9 11 10 10 6 4 6 6 5 7 9 14 18 22 25 19 14 13 13 13 13 15 17 18 17 18 19 18 19 19 20 22 22 16 11 11 12
8 12 14 7 4 6 8 7 2 5 7 6 4 4 5 5 9 13 19 20 20 18 14 14 14 16 16 17 18 18 19 18 18 17 18 17 27 23 16 16 11 8 8
13 11 3 3 5 7 7 5 3 3 4 2 2 3 3 6 8 11 17 16 17 16 15 14 14 17 18 18 18 18 19 18 20 20 19 21 24 20 19 17 12 9 7
5 4 5 8 5 6 5 4 4 4 3 2 0 3 6 8 8 9 13 16 16 16 15 14 13 14 16 17 18 20 21 21 21 23 19 21 29 24 19 16 2 8 8
6 7 9 7 4 5 5 3 3 3 3 3 3 4 4 7 6 4 8 11 14 15 15 15 14 14 15 16 19 19 21 21 24 22 21 21 27 16 18 5 8 12 12
7 8 7 5 3 3 3 2 6 5 5 7 7 10 17 5 5 6 7 8 11 13 15 15 16 15 14 15 16 19 24 23 21 21 24 22 23 15 11 19 15 23 19
4 3 2 2 2 4 6 4 7 8 9 9 8 5 6 7 4 4 6 8 9 11 13 15 15 16 13 13 17 18 21 23 22 19 23 20 19 18 13 24 23 22 21
5 1 1 2 4 5 3 6 6 8 8 9 10 10 8 6 6 4 8 7 9 11 12 13 14 15 15 13 14 17 20 26 21 18 18 17 14 14 10 14 16 18 20
6 6 6 4 6 7 7 6 6 9 8 9 8 8 10 10 10 9 7 6 9 10 11 12 12 13 14 14 12 14 18 23 22 12 13 13 13 13 13 13 12 13 12
7 6 6 6 6 6 6 6 8 8 8 7 8 10 12 8 8 8 9 9 9 10 11 11 11 13 13 13 12 10 15 20 22 9 9 11 9 11 10 9 9 10 14
12 11 10 9 8 8 7 7 7 7 8 8 9 10 9 9 10 9 10 10 10 10 11 10 11 12 12 11 10 8 13 18 21 12 4 9 8 6 7 7 5 8 9

GFSGL_850_spd_345.txt.gz
Wind_Speed
21 19 23 30 13 27 24 21 18 13 12 9 8 8 6 5 4 3 4 7 7 8 8 8 9 10 10 12 13 14 15 16 19 18 16 17 19 22 23 19 23 20 24
22 20 21 27 29 28 21 16 13 10 7 6 5 6 5 2 1 3 4 6 6 7 8 10 12 13 14 16 16 17 16 18 22 23 23 24 23 23 25 25 20 20 22
19 16 19 12 22 19 16 13 7 7 9 9 8 5 2 2 3 4 4 5 7 9 12 14 15 16 17 18 18 16 18 21 21 23 23 23 24 25 22 24 24 21 21
9 9 7 10 12 13 11 10 12 12 11 8 6 2 2 4 5 6 6 9 11 13 16 17 17 18 20 21 17 19 21 23 22 23 24 25 24 25 21 20 21 22 23
11 9 9 8 7 10 12 13 11 8 7 5 4 2 5 6 9 8 9 11 13 16 18 19 19 20 21 23 25 17 22 20 20 22 23 24 25 22 22 22 25 24 21
12 12 12 12 9 6 7 8 7 5 2 2 2 6 8 9 13 14 16 17 16 16 22 23 23 23 21 17 17 19 19 17 17 18 20 22 27 27 26 25 25 24 24
13 10 9 11 9 4 3 1 1 3 4 5 5 8 11 14 17 17 17 16 17 17 21 18 19 13 13 10 13 16 16 17 20 20 19 20 24 25 28 31 26 23 22
16 11 9 9 4 7 7 2 5 7 6 7 8 12 15 16 16 18 17 16 15 22 15 16 17 15 17 17 18 15 14 15 16 18 19 23 22 22 25 30 33 26 25
14 3 2 8 6 2 1 4 3 4 7 9 11 12 12 14 14 16 18 17 18 18 18 19 17 14 19 17 18 16 17 16 16 19 22 21 18 18 19 23 21 26 28
10 11 8 2 1 3 4 2 4 3 6 5 8 11 12 12 13 14 17 15 16 15 13 13 10 9 16 17 18 20 18 19 19 23 21 22 21 18 13 16 19 19 21
6 9 5 4 4 3 2 1 3 2 6 10 12 11 15 11 10 14 15 11 13 14 14 14 13 14 17 18 20 20 19 25 29 25 20 21 17 18 18 16 18 22 23
9 6 4 4 4 5 3 2 3 7 12 14 9 9 5 8 13 13 14 15 14 12 12 12 13 19 19 18 16 15 19 19 18 18 19 18 16 18 19 19 27 24 24
9 8 7 5 5 4 4 6 9 11 11 8 8 6 8 8 8 14 14 15 17 15 13 17 11 15 14 15 12 16 16 18 19 18 20 18 19 22 24 23 24 25 19
11 8 6 2 4 6 9 7 8 6 10 9 6 6 5 6 7 9 11 14 18 14 11 10 13 14 13 10 13 15 17 19 21 18 20 22 24 20 23 19 25 21 16
9 6 3 6 8 7 8 8 5 9 6 2 4 6 4 4 7 12 18 17 19 12 17 14 15 18 17 17 18 17 18 17 17 18 20 22 22 23 22 23 24 19 16
1 4 8 11 8 5 6 6 6 6 2 4 2 4 2 4 8 13 17 15 21 16 12 15 16 16 16 17 16 18 20 20 19 20 19 19 18 29 26 22 18 15 15
7 7 7 4 4 5 6 4 1 4 6 4 2 1 2 4 9 13 13 16 10 17 13 17 15 16 18 19 19 20 21 22 21 19 20 22 21 35 26 25 14 13 12
5 8 3 3 3 3 4 4 3 3 3 4 2 1 3 6 8 8 13 16 15 15 15 15 16 16 17 18 21 23 24 25 23 21 20 24 23 33 22 21 12 9 7
5 3 4 6 4 5 5 4 6 5 6 1 3 4 5 6 11 4 8 13 15 16 16 16 16 17 16 18 18 22 23 23 22 20 27 25 30 22 22 10 4 5 7
6 7 6 5 6 3 4 4 6 5 5 4 6 7 7 8 9 6 5 8 12 14 16 16 17 16 16 15 18 19 21 26 21 21 27 29 24 19 12 14 7 6 7
5 5 7 5 4 5 6 4 6 8 8 9 10 7 9 5 7 6 7 7 9 11 13 15 16 16 15 16 18 19 22 30 22 19 25 23 24 14 13 15 18 18 15
3 5 3 4 5 8 6 4 7 8 9 11 11 8 8 8 7 6 7 10 9 11 12 12 14 15 16 15 16 19 21 28 21 18 20 22 19 14 12 17 16 17 16
7 5 4 4 6 8 7 6 9 9 9 10 11 11 10 9 8 9 10 9 10 11 11 11 11 13 15 17 16 16 17 26 23 16 17 21 17 11 16 15 19 17 18
6 7 7 7 8 8 11 12 10 10 10 10 10 10 10 9 10 10 8 7 8 10 11 12 13 12 13 14 14 13 17 23 23 10 13 14 15 17 8 5 11 13 15
9 9 9 9 8 9 9 9 9 9 9 9 10 10 10 10 10 9 10 11 9 10 10 11 10 12 13 12 15 13 16 22 19 6 9 11 8 11 13 9 13 11 10
12 11 10 9 9 8 8 8 9 9 10 10 10 10 11 11 11 11 12 12 11 10 10 8 7 9 11 12 12 10 15 21 18 7 7 11 8 6 5 7 7 4 7

GFSGL_850_spd_348.txt.gz
Wind_Speed
33 32 31 30 32 28 22 25 38 21 20 16 8 6 5 5 4 3 3 4 4 6 8 6 7 9 11 12 14 15 17 19 19 20 20 23 26 25 23 23 22 25 23
30 25 19 27 30 29 32 27 17 16 14 9 5 4 6 6 2 0 1 7 3 4 6 10 12 13 14 17 17 17 16 15 20 23 22 23 25 28 26 27 28 26 26
14 19 20 20 21 26 24 13 9 8 7 9 12 10 6 4 2 4 4 3 4 6 11 13 16 20 21 19 19 21 25 24 22 26 28 27 28 26 27 24 23 23 19
9 3 2 3 3 4 6 6 8 11 13 11 8 5 3 1 3 5 4 3 7 13 15 19 19 21 21 21 20 23 24 27 27 25 24 23 22 23 24 21 20 17 19
8 5 4 5 7 9 11 14 17 13 10 8 5 4 3 5 8 7 8 10 16 18 17 19 19 20 21 22 20 22 22 22 24 22 25 25 24 24 27 25 23 21 24
15 16 14 15 16 17 17 17 14 14 10 5 3 4 8 9 12 14 16 19 19 19 19 20 23 22 21 19 18 18 15 18 20 21 23 21 25 27 28 30 31 31 33
20 15 12 13 11 10 8 5 3 9 9 11 12 8 9 11 13 16 18 19 20 18 19 25 24 20 22 22 17 16 20 20 17 21 24 24 24 26 26 27 29 31 32
5 2 6 3 3 5 6 1 3 2 3 3 6 8 10 13 16 18 18 19 19 19 21 19 20 17 19 18 16 21 21 20 19 20 22 21 25 25 26 26 26 27 26
8 13 12 11 11 9 6 6 6 3 1 6 9 9 11 13 13 14 16 18 19 18 18 16 17 19 14 15 14 18 20 23 21 21 22 24 30 25 24 23 20 19 21
13 13 10 12 11 10 7 6 3 1 4 3 10 11 10 11 14 14 16 13 11 16 14 15 18 14 13 16 20 19 21 22 21 25 24 22 18 23 19 17 19 20 19
7 12 9 6 2 2 2 2 4 5 7 10 9 9 12 10 14 14 16 16 17 18 10 16 16 17 21 20 18 20 19 20 25 24 25 22 20 15 15 16 18 17 22
8 10 6 7 10 6 6 4 6 6 7 6 9 9 10 10 13 14 16 19 21 19 14 17 17 15 16 20 20 18 16 19 21 23 22 21 19 16 18 21 23 22 24
8 7 7 4 3 4 5 6 7 9 9 11 13 2 4 10 10 11 13 15 18 16 13 15 18 14 13 13 15 17 18 18 20 23 23 19 22 26 25 24 25 24 25
0 6 4 4 5 6 6 6 7 7 8 4 3 4 6 4 6 13 16 16 14 13 14 15 16 13 12 14 14 16 17 18 19 17 20 22 22 24 22 22 25 29 30
6 5 3 7 5 5 5 7 5 6 6 3 5 4 4 3 9 12 12 13 12 12 10 16 20 19 19 19 17 18 19 21 21 19 20 22 24 24 26 31 29 22 21
2 4 6 5 6 6 5 5 7 7 3 3 2 2 1 3 9 9 9 14 10 5 8 13 19 19 17 20 22 24 24 23 23 19 21 23 27 25 31 33 20 18 16
6 4 5 6 5 6 5 6 4 6 4 4 2 1 2 6 8 7 9 13 12 7 9 14 14 16 16 19 19 21 25 25 22 19 21 26 31 31 24 26 19 12 10
6 8 7 7 7 8 8 6 7 4 5 3 3 3 3 7 10 6 7 11 17 14 14 14 15 14 20 18 20 22 24 32 21 20 28 31 32 26 24 21 14 5 4
8 7 6 7 5 8 7 6 7 4 3 2 5 7 11 7 8 8 3 9 12 14 16 16 16 15 16 17 21 22 24 31 24 18 29 28 29 23 24 20 11 11 12
9 8 11 7 7 5 6 7 8 6 5 5 7 9 7 10 10 7 4 6 9 11 13 15 18 18 16 16 18 23 24 31 24 21 28 25 24 22 22 23 15 15 9
7 6 6 5 5 7 9 4 6 10 8 8 9 7 8 9 10 4 6 8 9 9 10 10 16 19 17 19 20 20 22 28 22 18 27 24 20 18 21 20 20 18 15
7 4 2 4 4 9 6 6 6 9 9 11 10 8 5 7 8 6 8 9 7 8 10 13 12 12 18 20 19 19 23 26 21 17 24 21 18 17 16 16 20 21 17
7 5 4 9 4 6 7 6 9 8 7 7 9 11 9 9 10 9 8 10 10 12 12 13 14 14 11 17 15 15 19 25 21 14 15 15 18 11 14 16 17 17 17
5 8 8 7 7 8 7 7 7 9 7 8 9 10 10 8 8 11 12 11 12 13 15 14 9 8 10 15 17 15 18 23 17 12 11 16 9 18 7 12 15 14 17
7 8 7 8 6 8 7 6 7 8 8 8 8 10 10 9 8 10 12 11 9 8 8 8 9 9 7 12 14 12 17 20 14 10 12 12 12 11 11 6 7 8 7
9 8 8 7 8 8 8 8 8 8 9 9 9 11 11 10 11 14 13 14 13 12 10 7 7 5 10 11 10 12 16 17 12 11 10 11 10 9 10 10 4 11 4